CZ-6A DEB, 61316

Orbit data source: Space-Track

CZ-6A DEB, 61316 is space debris in LEO originally from a launch on Tue, 06 Aug 2024 UTC launched from the Taiyaun Space Center, China (TSC). Debris objects in space refer to the collection of defunct objects orbiting the Earth. Examples of debris include non-operational satellites, rocket bodies, and fragments generated from explosions, collisions, or faulty payload assembly.

Loading next visibility...
Identifier
61316, 2024-140UD
Orbit
LEO
Country
Flag of CNCN / PRC
Related business
Manufacturer
SAST
Mission
Spacecraft
Bus & Motor
Unknown
Mass
Unknown
Launch date (UTC)
2024-08-06 (1 year ago)
Launch vehicle
Unknown
Launch site
Taiyaun Space Center, China (TSC)
Object type
Payload
Rocket body
Debris
Shape & HBR
Unknown shape, 0.1 m
Radar Cross Section
Small (<0.1 m²)

Expand to show TLE details & history
Last TLE update: 8 hours ago

TLE from 8 hours ago
0 CZ-6A DEB
1 61316U 24140UD  25351.27546076  .00002214  00000-0  63261-3 0  9991
2 61316  89.0651 297.0818 0077289 234.1421 125.2588 14.43112795168501
Epoch: 2025-12-17T06:36Z
TLE epoch observation values (Epoch: 2025-12-17T06:36:39.809Z)
Latitude
-0.00001°
Longitude
111.76827°
Altitude
783.403 km
Speed
7.445 km/s
True Right ascension
19h 48m 19s
True Declination
0° 00' 00"
Sunlit
Object was in daylight at epoch
Visualization orbit readout
Latitude
Unknown
Longitude
Unknown
Altitude
Unknown
Speed
Unknown
Apparent Right ascension
Unknown
Apparent Declination
Unknown
Sunlit
N/A
Visualization observer readout
Local Sidereal Time
12:52:23
Azimuth
Unknown
Elevation
Unknown
Doppler factor
Unknown
Orbital elements
Apogee altitude
800.205 km
Perigee altitude
690.095 km
Semi-major axis
7,123.287 km
Eccentricity
0.00773
Inclination
89.0651°
RAAN
297.0818°
Arg. of periapsis
234.1421°
True anomaly
125.97796°
Mean anomaly
125.2588°
Eccentric anomaly
125.61878°
Mean motion
3.61013 °/min
Orbital period
99.72 mins
BSTAR
0.00063261
Loading maneuver chart data...
Computing Atmospheric mass density...

Documentation

Showing up to 5 results
|